• In Deutschland
  • Länderverzeichnis
  • Für 7 Tage
  • Wassertemperatur
  • Satellitenkarten
  • Wetterkarte
  • Widgets
  • user-avatar
    Anmelden

    Stündliche Wetter Jelenia Góra

    Heute, 23 September, Sonntag

    Zeit Temperatur Niederschläge Wind Luftdruck Luftfeuchtigkeit
    00:00 +11°C° 0 mm 3 m/S 733 mmHg 70%
    01:00 +11°C° 0 mm 4 m/S 732 mmHg 71%
    02:00 +11°C° 0 mm 4 m/S 732 mmHg 74%
    03:00 +10°C° 0 mm 3 m/S 732 mmHg 77%
    04:00 +10°C° 0 mm 3 m/S 732 mmHg 81%
    05:00 +10°C° 0 mm 3 m/S 732 mmHg 80%
    06:00 +10°C° 0 mm 3 m/S 731 mmHg 79%
    07:00 +11°C° 0 mm 3 m/S 731 mmHg 76%
    08:00 +11°C° 0 mm 3 m/S 731 mmHg 73%
    09:00 +12°C° 0 mm 4 m/S 731 mmHg 69%
    10:00 +13°C° 0 mm 4 m/S 731 mmHg 65%
    11:00 +13°C° 0.1 mm 4 m/S 730 mmHg 66%
    12:00 +13°C° 0.1 mm 4 m/S 730 mmHg 67%
    13:00 +13°C° 0.1 mm 4 m/S 729 mmHg 68%
    14:00 +12°C° 0.5 mm 4 m/S 727 mmHg 75%
    15:00 +12°C° 0.5 mm 4 m/S 726 mmHg 81%
    16:00 +11°C° 0.5 mm 4 m/S 724 mmHg 87%
    17:00 +12°C° 1.8 mm 5 m/S 723 mmHg 87%
    18:00 +14°C° 1.8 mm 6 m/S 722 mmHg 88%
    19:00 +15°C° 1.8 mm 8 m/S 721 mmHg 88%
    20:00 +13°C° 3.1 mm 6 m/S 721 mmHg 90%
    21:00 +10°C° 3.1 mm 5 m/S 721 mmHg 91%
    22:00 +10°C° 3.1 mm 4 m/S 722 mmHg 93%
    23:00 +8°C° 0.9 mm 6 m/S 723 mmHg 91%

    Morgen, 24 September, Montag

    Zeit Temperatur Niederschläge Wind Luftdruck Luftfeuchtigkeit
    00:00 +6°C° 0.9 mm 7 m/S 725 mmHg 90%
    01:00 +6°C° 0.9 mm 8 m/S 727 mmHg 88%
    02:00 +6°C° 0.2 mm 8 m/S 728 mmHg 88%
    03:00 +6°C° 0.2 mm 7 m/S 729 mmHg 88%
    04:00 +6°C° 0.2 mm 7 m/S 731 mmHg 87%
    05:00 +5°C° 0.1 mm 7 m/S 732 mmHg 86%
    06:00 +5°C° 0.1 mm 8 m/S 732 mmHg 84%
    07:00 +5°C° 0.1 mm 8 m/S 733 mmHg 83%
    08:00 +5°C° 0.1 mm 8 m/S 734 mmHg 79%
    09:00 +6°C° 0.1 mm 8 m/S 735 mmHg 75%
    10:00 +6°C° 0.1 mm 8 m/S 736 mmHg 72%
    11:00 +7°C° 0.2 mm 9 m/S 736 mmHg 66%
    12:00 +8°C° 0.2 mm 9 m/S 736 mmHg 60%
    13:00 +9°C° 0.2 mm 10 m/S 737 mmHg 54%
    14:00 +8°C° 0.1 mm 9 m/S 737 mmHg 54%
    15:00 +8°C° 0.1 mm 9 m/S 737 mmHg 53%
    16:00 +8°C° 0.1 mm 9 m/S 737 mmHg 53%
    17:00 +8°C° 0 mm 7 m/S 737 mmHg 56%
    18:00 +7°C° 0 mm 6 m/S 738 mmHg 60%
    19:00 +6°C° 0 mm 5 m/S 738 mmHg 64%
    20:00 +5°C° 0 mm 5 m/S 739 mmHg 66%
    21:00 +5°C° 0 mm 4 m/S 739 mmHg 68%
    22:00 +4°C° 0 mm 4 m/S 740 mmHg 70%
    23:00 +4°C° 0 mm 4 m/S 740 mmHg 72%

    übermorgen, 25 September, Dienstag

    Zeit Temperatur Niederschläge Wind Luftdruck Luftfeuchtigkeit
    00:00 +4°C° 0 mm 4 m/S 741 mmHg 74%
    01:00 +4°C° 0 mm 4 m/S 741 mmHg 76%
    02:00 +3°C° 0 mm 4 m/S 742 mmHg 78%
    03:00 +3°C° 0 mm 4 m/S 742 mmHg 80%
    04:00 +1°C° 0 mm 4 m/S 742 mmHg 82%
    05:00 +3°C° 0 mm 4 m/S 743 mmHg 82%
    06:00 +3°C° 0 mm 4 m/S 743 mmHg 82%
    07:00 +3°C° 0 mm 4 m/S 744 mmHg 81%
    08:00 +5°C° 0 mm 4 m/S 744 mmHg 73%
    09:00 +6°C° 0 mm 4 m/S 745 mmHg 65%
    10:00 +8°C° 0 mm 4 m/S 745 mmHg 58%
    11:00 +10°C° 0 mm 4 m/S 745 mmHg 54%
    12:00 +11°C° 0 mm 4 m/S 745 mmHg 50%
    13:00 +11°C° 0 mm 4 m/S 745 mmHg 46%
    14:00 +11°C° 0 mm 4 m/S 745 mmHg 47%
    15:00 +11°C° 0 mm 4 m/S 745 mmHg 47%
    16:00 +11°C° 0 mm 4 m/S 745 mmHg 48%
    17:00 +9°C° 0 mm 3 m/S 745 mmHg 53%
    18:00 +8°C° 0 mm 2 m/S 745 mmHg 59%
    19:00 +6°C° 0 mm 2 m/S 745 mmHg 65%
    20:00 +6°C° 0 mm 2 m/S 746 mmHg 66%
    21:00 +6°C° 0 mm 1 m/S 746 mmHg 68%
    22:00 +6°C° 0 mm 1 m/S 746 mmHg 69%
    23:00 +6°C° 0 mm 1 m/S 746 mmHg 69%

    26 September, Mittwoch

    Zeit Temperatur Niederschläge Wind Luftdruck Luftfeuchtigkeit
    00:00 +5°C° 0 mm 1 m/S 746 mmHg 70%
    01:00 +5°C° 0 mm 1 m/S 746 mmHg 70%
    02:00 +5°C° 0 mm 1 m/S 745 mmHg 71%
    03:00 +4°C° 0 mm 2 m/S 745 mmHg 71%
    04:00 +4°C° 0 mm 2 m/S 745 mmHg 72%
    05:00 +4°C° 0 mm 2 m/S 745 mmHg 71%
    06:00 +4°C° 0 mm 2 m/S 745 mmHg 70%
    07:00 +5°C° 0 mm 2 m/S 745 mmHg 69%
    08:00 +7°C° 0 mm 3 m/S 745 mmHg 61%
    09:00 +9°C° 0 mm 3 m/S 745 mmHg 53%
    10:00 +11°C° 0 mm 3 m/S 745 mmHg 46%
    11:00 +12°C° 0 mm 4 m/S 744 mmHg 43%
    12:00 +13°C° 0 mm 4 m/S 744 mmHg 40%
    13:00 +14°C° 0 mm 4 m/S 743 mmHg 37%
    14:00 +14°C° 0 mm 4 m/S 742 mmHg 39%
    15:00 +14°C° 0 mm 4 m/S 742 mmHg 41%
    16:00 +14°C° 0 mm 3 m/S 741 mmHg 42%
    17:00 +12°C° 0 mm 3 m/S 741 mmHg 45%
    18:00 +11°C° 0 mm 3 m/S 741 mmHg 48%
    19:00 +10°C° 0 mm 3 m/S 741 mmHg 51%
    20:00 +10°C° 0 mm 3 m/S 741 mmHg 52%
    21:00 +9°C° 0 mm 3 m/S 741 mmHg 53%
    22:00 +9°C° 0 mm 3 m/S 740 mmHg 53%
    23:00 +9°C° 0 mm 3 m/S 740 mmHg 54%

    27 September, Donnerstag

    Zeit Temperatur Niederschläge Wind Luftdruck Luftfeuchtigkeit
    00:00 +9°C° 0 mm 3 m/S 740 mmHg 55%
    01:00 +9°C° 0 mm 3 m/S 740 mmHg 57%
    02:00 +9°C° 0 mm 3 m/S 740 mmHg 56%
    03:00 +9°C° 0 mm 3 m/S 740 mmHg 56%
    04:00 +9°C° 0 mm 3 m/S 740 mmHg 56%
    05:00 +10°C° 0 mm 3 m/S 740 mmHg 56%
    06:00 +10°C° 0 mm 3 m/S 740 mmHg 57%
    07:00 +10°C° 0 mm 3 m/S 740 mmHg 57%
    08:00 +12°C° 0 mm 4 m/S 740 mmHg 55%
    09:00 +14°C° 0 mm 4 m/S 740 mmHg 52%
    10:00 +17°C° 0 mm 4 m/S 740 mmHg 50%
    11:00 +18°C° 0 mm 4 m/S 740 mmHg 50%
    12:00 +20°C° 0 mm 4 m/S 739 mmHg 49%
    13:00 +21°C° 0 mm 4 m/S 739 mmHg 49%
    14:00 +21°C° 0 mm 4 m/S 739 mmHg 50%
    15:00 +21°C° 0 mm 3 m/S 738 mmHg 51%
    16:00 +21°C° 0 mm 3 m/S 738 mmHg 52%
    17:00 +19°C° 0 mm 3 m/S 737 mmHg 58%
    18:00 +17°C° 0 mm 2 m/S 737 mmHg 63%
    19:00 +15°C° 0 mm 2 m/S 737 mmHg 68%
    20:00 +15°C° 0 mm 2 m/S 737 mmHg 68%
    21:00 +14°C° 0 mm 2 m/S 736 mmHg 68%
    22:00 +14°C° 0 mm 2 m/S 736 mmHg 68%
    23:00 +14°C° 0 mm 2 m/S 736 mmHg 69%

    28 September, Freitag

    Zeit Temperatur Niederschläge Wind Luftdruck Luftfeuchtigkeit
    00:00 +13°C° 0 mm 2 m/S 735 mmHg 69%
    01:00 +13°C° 0 mm 2 m/S 735 mmHg 70%
    02:00 +13°C° 0 mm 2 m/S 735 mmHg 71%
    03:00 +12°C° 0 mm 2 m/S 734 mmHg 72%
    04:00 +12°C° 0 mm 2 m/S 734 mmHg 73%
    05:00 +12°C° 0 mm 2 m/S 734 mmHg 73%
    06:00 +12°C° 0 mm 2 m/S 734 mmHg 72%
    07:00 +12°C° 0 mm 2 m/S 734 mmHg 71%
    08:00 +14°C° 0 mm 2 m/S 734 mmHg 64%
    09:00 +16°C° 0 mm 2 m/S 734 mmHg 57%
    10:00 +18°C° 0 mm 2 m/S 734 mmHg 49%
    11:00 +19°C° 0 mm 2 m/S 734 mmHg 47%
    12:00 +20°C° 0 mm 2 m/S 734 mmHg 45%
    13:00 +21°C° 0 mm 2 m/S 734 mmHg 43%
    14:00 +20°C° 0 mm 2 m/S 734 mmHg 46%
    15:00 +20°C° 0 mm 2 m/S 734 mmHg 49%
    16:00 +19°C° 0 mm 2 m/S 733 mmHg 52%
    17:00 +17°C° 0 mm 2 m/S 734 mmHg 62%
    18:00 +15°C° 0 mm 2 m/S 734 mmHg 73%
    19:00 +13°C° 0 mm 2 m/S 734 mmHg 83%
    20:00 +13°C° 0 mm 2 m/S 734 mmHg 85%
    21:00 +13°C° 0 mm 2 m/S 734 mmHg 87%
    22:00 +13°C° 0 mm 2 m/S 735 mmHg 89%
    23:00 +13°C° 0 mm 2 m/S 735 mmHg 88%
    Mehr zeigen